Portada
METAR-TAF:

METAR-TAF

Aeropuertos :

Algeciras, España

Helipuerto de Algeciras

latitud: 36-07-44N, longitud: 05-26-28W, altitud: 30 m

Observación

El informe se hizo hace 28 minutos, a las 15:30 UTC
Viento 8 kt del este-sureste
Temperatura 14°C
Humedad 72%
Presión 1007 hPa
Visibilidad 10 km o más
Cielo cubierto a una altura de 2600 ft

METAR: LEAG 241530Z AUTO 11008KT 9999 OVC026 14/09 Q1007

Hora: 16:58 (15:58 UTC)


TAF: falta

Observaciones y pronósticos meteorológicos de más de 4000 aeropuertos (mensajes METAR y TAF).

Los puntos amarillos y rojos representan las estaciones disponibles.

Ponga el ratón en el punto deseado para ver el nombre de la estación.

Haga clic para ver las observaciones y los pronósticos meteorológicos.

Para cambiar el mapa : haga clic en los botones verdes con una cruz de color negro para hacer un zoom, en el botón verde con un guión para alejar o en las flechas verdes para mapas adyacentes.


METAR-TAF: